GW6172 Weather Reports


time (UTC)temp
C
wind
direction
speed
KPH
gust
KPH
rain 1hr
cm
rain 24hr
cm
rain mn
cm
humidity
%
barometer
mb
20260507133011 6 256 6.4 9.7 0.00 0.00 0.00 61 1014.8
20260507132011 6 254 4.8 6.4 0.00 0.00 0.00 61 1014.8
20260507131010 6 257 8.0 6.4 0.00 0.00 0.00 61 1014.8
20260507130011 5 279 4.8 6.4 0.00 0.00 0.00 61 1014.8
20260507125011 5 262 4.8 4.8 0.00 0.00 0.00 59 1014.9
20260507124011 5 274 9.7 9.7 0.00 0.00 0.00 58 1014.9
20260507123011 6 250 8.0 8.0 0.00 0.00 0.00 58 1015.0
20260507122010 6 331 11.3 12.9 0.00 0.00 0.00 57 1015.1
20260507121011 7 322 11.3 14.5 0.00 0.00 0.00 56 1015.1
20260507120010 7 184 9.7 12.9 0.00 0.00 0.00 56 1015.1
20260507115011 7 149 9.7 8.0 0.00 0.00 0.00 56 1015.0
20260507114011 8 142 11.3 14.5 0.00 0.00 0.00 56 1014.8
20260507113011 8 44 8.0 9.7 0.00 0.00 0.00 56 1014.8
20260507112011 8 141 12.9 9.7 0.00 0.00 0.00 57 1014.8
20260507111010 8 141 14.5 17.7 0.00 0.00 0.00 57 1014.9
20260507110011 7 118 12.9 16.1 0.00 0.00 0.00 58 1014.9
20260507105011 7 142 9.7 9.7 0.00 0.00 0.00 58 1014.8
20260507104010 7 155 12.9 16.1 0.00 0.00 0.00 58 1014.8
20260507103011 7 133 14.5 12.9 0.00 0.00 0.00 58 1014.9
20260507102011 7 137 14.5 17.7 0.00 0.00 0.00 59 1014.8
20260507101011 7 139 11.3 9.7 0.00 0.00 0.00 59 1014.7
20260507100011 7 145 14.5 19.3 0.00 0.00 0.00 59 1014.6
20260507095010 7 129 16.1 16.1 0.00 0.00 0.00 59 1014.5
20260507094010 7 148 11.3 14.5 0.00 0.00 0.00 59 1014.5
20260507093010 7 154 9.7 14.5 0.00 0.00 0.00 59 1014.5
20260507092011 7 162 9.7 11.3 0.00 0.00 0.00 60 1014.4
20260507091010 7 209 9.7 14.5 0.00 0.00 0.00 59 1014.4
20260507090011 7 144 12.9 20.9 0.00 0.00 0.00 59 1014.4
20260507085011 7 145 6.4 8.0 0.00 0.00 0.00 59 1014.4
20260507084010 7 192 11.3 11.3 0.00 0.00 0.00 59 1014.3
20260507083011 7 154 9.7 12.9 0.00 0.00 0.00 58 1014.4
20260507082010 7 136 11.3 11.3 0.00 0.00 0.00 58 1014.2
20260507081011 7 149 9.7 12.9 0.00 0.00 0.00 58 1014.2
20260507080010 7 124 11.3 12.9 0.00 0.00 0.00 58 1014.1
20260507075011 7 142 9.7 9.7 0.00 0.00 0.00 58 1014.1
20260507074011 7 188 4.8 6.4 0.00 0.00 0.00 58 1014.0
20260507073011 7 180 6.4 8.0 0.00 0.00 0.00 58 1014.0
20260507072011 7 164 6.4 9.7 0.00 0.00 0.00 57 1013.8
20260507071011 7 201 6.4 6.4 0.00 0.00 0.00 58 1013.7
20260507070013 7 234 4.8 6.4 0.00 0.00 0.00 58 1013.7
20260507065011 7 235 6.4 8.0 0.00 0.00 0.00 58 1013.6
20260507064011 8 119 8.0 9.7 0.00 0.00 0.00 61 1013.6
20260507063011 8 135 6.4 4.8 0.00 0.00 0.00 62 1013.6
20260507062011 7 152 6.4 8.0 0.00 0.00 0.00 63 1013.5
20260507061011 7 175 6.4 4.8 0.00 0.00 0.00 63 1013.5
20260507060011 7 157 8.0 8.0 0.00 0.00 0.00 66 1013.5
20260507055011 6 164 4.8 6.4 0.00 0.00 0.00 68 1013.4
20260507054011 5 167 6.4 8.0 0.00 0.00 0.00 70 1013.3
20260507053011 4 144 8.0 8.0 0.00 0.00 0.00 72 1013.3
20260507052011 3 135 4.8 6.4 0.00 0.00 0.00 73 1013.2
20260507051011 2 302 3.2 4.8 0.00 0.00 0.00 74 1013.1
20260507050010 1 315 6.4 6.4 0.00 0.00 0.00 75 1013.1
20260507045011 1 151 4.8 4.8 0.00 0.00 0.00 76 1013.2
20260507044011 0 125 4.8 4.8 0.00 0.00 0.00 77 1013.2
20260507043011 0 139 4.8 4.8 0.00 0.00 0.00 77 1013.2
20260507042010 -1 135 6.4 4.8 0.00 0.00 0.00 77 1013.1
20260507041011 -1 158 3.2 4.8 0.00 0.00 0.00 77 1013.0
20260507040010 -2 185 1.6 3.2 0.00 0.00 0.00 77 1012.8
20260507035011 -2 151 3.2 1.6 0.00 0.00 0.00 77 1012.8
20260507034011 -2 315 1.6 3.2 0.00 0.00 0.00 77 1012.7
20260507033011 -3 333 1.6 0.0 0.00 0.00 0.00 76 1012.6
20260507032011 -3 180 0.0 0.0 0.00 0.00 0.00 75 1012.7
20260507031010 -3 165 1.6 0.0 0.00 0.00 0.00 75 1012.5
20260507030011 -3 270 0.0 0.0 0.00 0.00 0.00 75 1012.5
20260507025011 -3 270 0.0 0.0 0.00 0.00 0.00 75 1012.5
20260507024011 -3 270 0.0 0.0 0.00 0.00 0.00 74 1012.5
20260507023011 -3 270 0.0 1.6 0.00 0.00 0.00 74 1012.5
20260507022011 -3 180 0.0 1.6 0.00 0.00 0.00 74 1012.4
20260507021011 -3 270 0.0 0.0 0.00 0.00 0.00 74 1012.3
20260507020010 -3 315 1.6 3.2 0.00 0.00 0.00 74 1012.4
20260507015010 -3 270 1.6 1.6 0.00 0.00 0.00 74 1012.4
20260507014011 -3 270 0.0 1.6 0.00 0.00 0.00 74 1012.4
20260507013011 -3 270 1.6 1.6 0.00 0.00 0.00 74 1012.4
20260507012011 -2 270 0.0 1.6 0.00 0.00 0.00 74 1012.4
20260507011011 -2 270 1.6 1.6 0.00 0.00 0.00 74 1012.4
20260507010011 -3 270 1.6 1.6 0.00 0.00 0.00 73 1012.4
20260507005011 -3 270 1.6 1.6 0.00 0.00 0.00 73 1012.3
20260507004011 -3 270 1.6 3.2 0.00 0.00 0.00 72 1012.2
20260507003011 -2 270 1.6 3.2 0.00 0.00 0.00 71 1012.1
20260507002011 -2 270 1.6 1.6 0.00 0.00 0.00 71 1012.0
20260507001011 -2 270 1.6 1.6 0.00 0.00 0.00 71 1011.9
20260507000011 -2 180 1.6 1.6 0.00 0.00 0.00 70 1011.9
20260506235011 -2 180 0.0 1.6 0.00 0.00 0.00 70 1011.8
20260506234010 -1 158 1.6 1.6 0.00 0.00 0.00 70 1011.7
20260506233011 -1 315 0.0 0.0 0.00 0.00 0.00 69 1011.6
20260506232011 -1 295 0.0 1.6 0.00 0.00 0.00 69 1011.6
20260506231011 0 325 0.0 3.2 0.00 0.00 0.00 68 1011.6
20260506230011 0 266 1.6 3.2 0.00 0.00 0.00 68 1011.7
20260506225011 0 281 1.6 3.2 0.00 0.00 0.00 68 1011.7
20260506224010 0 240 3.2 3.2 0.00 0.00 0.00 68 1011.7
20260506223011 0 179 1.6 3.2 0.00 0.00 0.00 67 1011.7
20260506222011 0 135 1.6 3.2 0.00 0.00 0.00 67 1011.6
20260506221011 0 208 1.6 3.2 0.00 0.00 0.00 67 1011.5
20260506220011 0 45 1.6 1.6 0.00 0.00 0.00 67 1011.5
20260506215011 0 336 3.2 3.2 0.00 0.00 0.00 68 1011.4
20260506214011 0 307 3.2 4.8 0.00 0.00 0.00 68 1011.4
20260506213010 0 296 3.2 4.8 0.00 0.00 0.00 69 1011.4
20260506212011 0 329 4.8 9.7 0.00 0.00 0.00 69 1011.3
20260506211011 -1 315 1.6 3.2 0.00 0.00 0.00 68 1011.3
20260506210011 -1 270 1.6 3.2 0.00 0.00 0.00 67 1011.2
20260506205011 -1 338 1.6 3.2 0.00 0.00 0.00 66 1011.1
20260506204011 -1 270 1.6 1.6 0.00 0.00 0.00 66 1011.1
20260506203011 0 270 1.6 3.2 0.00 0.00 0.00 66 1011.0
20260506202011 0 270 1.6 1.6 0.00 0.00 0.00 65 1010.9
20260506201010 0 270 1.6 1.6 0.00 0.00 0.00 64 1010.7
20260506200011 0 270 1.6 3.2 0.00 0.00 0.00 64 1010.7
20260506195011 0 270 1.6 3.2 0.00 0.00 0.00 62 1010.6
20260506194010 0 270 1.6 1.6 0.00 0.00 0.00 62 1010.6
20260506193010 1 270 1.6 3.2 0.00 0.00 0.00 61 1010.5
20260506192011 1 270 1.6 3.2 0.00 0.00 0.00 60 1010.4
20260506191011 2 270 1.6 3.2 0.00 0.00 0.00 59 1010.3
20260506190011 2 247 1.6 3.2 0.00 0.00 0.00 58 1010.3
20260506185011 2 270 1.6 1.6 0.00 0.00 0.00 57 1010.2
20260506184011 3 247 1.6 3.2 0.00 0.00 0.00 57 1010.1
20260506183011 3 135 1.6 1.6 0.00 0.00 0.00 56 1010.1
20260506182011 3 270 0.0 1.6 0.00 0.00 0.00 55 1010.1
20260506181011 3 270 0.0 0.0 0.00 0.00 0.00 54 1010.0
20260506180011 4 180 1.6 1.6 0.00 0.00 0.00 53 1009.9
20260506175011 5 255 3.2 3.2 0.00 0.00 0.00 53 1009.9
20260506174011 5 180 0.0 0.0 0.00 0.00 0.00 52 1009.7
20260506173011 6 315 1.6 1.6 0.00 0.00 0.00 51 1009.7
20260506172011 6 318 3.2 3.2 0.00 0.00 0.00 50 1009.6
20260506171011 6 294 3.2 3.2 0.00 0.00 0.00 50 1009.6
20260506170012 6 334 4.8 9.7 0.00 0.00 0.00 49 1009.5
20260506165011 7 348 9.7 9.7 0.00 0.00 0.00 49 1009.5
20260506164010 7 332 6.4 9.7 0.00 0.00 0.00 48 1009.4
20260506163011 7 325 12.9 17.7 0.00 0.00 0.00 48 1009.4
20260506162011 8 260 3.2 6.4 0.00 0.00 0.00 47 1009.2
20260506161011 9 236 8.0 8.0 0.00 0.00 0.00 46 1009.1
20260506160011 10 182 8.0 6.4 0.00 0.00 0.00 46 1009.0
20260506155011 11 209 11.3 14.5 0.00 0.00 0.00 45 1008.8
20260506154011 10 267 9.7 19.3 0.00 0.00 0.00 46 1008.7
20260506153011 8 270 8.0 16.1 0.00 0.00 0.00 47 1008.7
20260506152011 8 90 6.4 6.4 0.00 0.00 0.00 47 1008.6
20260506151011 8 118 6.4 6.4 0.00 0.00 0.00 46 1008.5
20260506150011 8 80 8.0 11.3 0.00 0.00 0.00 46 1008.4
20260506145011 9 331 8.0 8.0 0.00 0.00 0.00 44 1008.4
20260506144011 9 238 9.7 6.4 0.00 0.00 0.00 45 1008.3
20260506143011 9 114 12.9 4.8 0.00 0.00 0.00 46 1008.5
20260506142010 9 125 6.4 8.0 0.00 0.00 0.00 47 1008.3
20260506141011 9 28 8.0 9.7 0.00 0.00 0.00 47 1008.3
20260506140011 9 310 6.4 6.4 0.00 0.00 0.00 47 1008.3
20260506135011 9 352 16.1 17.7 0.00 0.00 0.00 48 1008.3
20260506134011 9 99 8.0 9.7 0.00 0.00 0.00 49 1008.2